Faribault, MN

9:37 PM CST on December 14, 2017 (GMT -0600)
Faribault Municipal

Weather History for KFBL - March, 2012

Change the Weather History Date:

Friday, March 30, 2012

  Actual Average Record
Temperature  
Mean Temperature 48 °F -  
Max Temperature 53 °F 48 °F 81 °F (1968)
Min Temperature 42 °F 27 °F -3 °F (1969)
Degree Days  
Heating Degree Days 18    
Moisture  
Dew Point 41 °F    
Average Humidity 80    
Maximum Humidity 87    
Minimum Humidity 67    
Precipitation  
Precipitation 0.00 in - - ()
Sea Level Pressure  
Sea Level Pressure 29.80 in    
Wind  
Wind Speed 5 mph (East)    
Max Wind Speed 13 mph    
Max Gust Speed -    
Visibility 8 miles    
Events      
Averages and records for this station are not official NWS values.
T = Trace of Precipitation, MM = Missing Value Source: NWS Daily Summary

Daily Weather History Graph

Daily Weather History Graph

Search for Another Location

Airport or City:

Trip Planner

Search our weather history database for the weather conditions in past years. The results will help you decide how hot, cold, wet, or windy it might be!

Date:

Astronomy

Mar. 30, 2012 Rise Set
Actual Time 6:57 AM CDT 7:38 PM CDT
Civil Twilight 6:27 AM CDT 8:08 PM CDT
Nautical Twilight 5:53 AM CDT 8:42 PM CDT
Astronomical Twilight 5:17 AM CDT 9:18 PM CDT
Moon 11:53 AM CDT (3/30) 2:26 AM CDT (3/30)
Length of Visible Light 13h 40m
Length of Day
12h 41m
Waxing Crescent, 49% of the Moon is Illuminated
Mar 30
Waxing Crescent
Mar 30
First Quarter
Apr 6
Full
Apr 13
Last Quarter
Apr 21
New

Hourly Weather History & Observations

Time (CDT) Temp. Windchill Dew Point Humidity Pressure Visibility Wind Dir Wind Speed Gust Speed Precip Events Conditions
12:13 AM 48.2 °F - 42.8 °F 82% 29.77 in 10.0 mi Calm Calm - N/A   Scattered Clouds
12:34 AM 48.2 °F - 42.8 °F 82% 29.78 in 10.0 mi NE 5.8 mph - N/A   Mostly Cloudy
12:54 AM 48.2 °F - 42.8 °F 82% 29.78 in 10.0 mi East 5.8 mph - N/A   Scattered Clouds
1:14 AM 46.4 °F 42.4 °F 42.8 °F 87% 29.78 in 10.0 mi ESE 8.1 mph - N/A   Scattered Clouds
1:34 AM 46.4 °F 41.9 °F 42.8 °F 87% 29.78 in 10.0 mi ESE 9.2 mph - N/A   Clear
1:53 AM 46.4 °F 42.9 °F 42.8 °F 87% 29.78 in 10.0 mi ESE 6.9 mph - N/A   Scattered Clouds
2:14 AM 46.4 °F 42.9 °F 42.8 °F 87% 29.78 in 10.0 mi East 6.9 mph - N/A   Mostly Cloudy
2:34 AM 46.4 °F 41.5 °F 41.0 °F 81% 29.78 in 10.0 mi ESE 10.4 mph - N/A   Overcast
2:53 AM 46.4 °F 42.9 °F 41.0 °F 81% 29.78 in 10.0 mi East 6.9 mph - N/A   Overcast
3:14 AM 46.4 °F 40.7 °F 39.2 °F 76% 29.78 in 10.0 mi ESE 12.7 mph - N/A   Overcast
3:34 AM 46.4 °F 41.5 °F 39.2 °F 76% 29.78 in 10.0 mi ESE 10.4 mph - N/A   Overcast
3:54 AM 44.6 °F 39.7 °F 39.2 °F 81% 29.78 in 10.0 mi SE 9.2 mph - N/A   Overcast
4:14 AM 44.6 °F 40.2 °F 39.2 °F 81% 29.78 in 10.0 mi ESE 8.1 mph - N/A   Overcast
4:34 AM 44.6 °F 40.2 °F 39.2 °F 81% 29.75 in 10.0 mi ESE 8.1 mph - N/A   Scattered Clouds
4:54 AM 44.6 °F 40.2 °F 39.2 °F 81% 29.75 in 10.0 mi ESE 8.1 mph - N/A   Scattered Clouds
5:14 AM 42.8 °F 40.1 °F 39.2 °F 87% 29.75 in 10.0 mi ESE 4.6 mph - N/A   Scattered Clouds
5:34 AM 44.6 °F - 39.2 °F 81% 29.76 in 10.0 mi Calm Calm - N/A   Mostly Cloudy
5:53 AM 44.6 °F - 39.2 °F 81% 29.76 in 10.0 mi Calm Calm - N/A   Overcast
6:14 AM 44.6 °F 43.1 °F 39.2 °F 81% 29.77 in 10.0 mi East 3.5 mph - N/A   Overcast
6:34 AM 44.6 °F - 39.2 °F 81% 29.77 in 10.0 mi Calm Calm - N/A   Overcast
6:53 AM 44.6 °F 42.2 °F 39.2 °F 81% 29.77 in 7.0 mi ENE 4.6 mph - N/A   Overcast
7:14 AM 42.8 °F 41.1 °F 39.2 °F 87% 29.77 in 7.0 mi East 3.5 mph - N/A   Overcast
7:34 AM 42.8 °F 39.3 °F 39.2 °F 87% 29.78 in 7.0 mi East 5.8 mph - N/A   Overcast
7:53 AM 42.8 °F 38.6 °F 39.2 °F 87% 29.79 in 7.0 mi ENE 6.9 mph - N/A   Overcast
8:14 AM 42.8 °F 38.6 °F 37.4 °F 81% 29.78 in 5.0 mi ENE 6.9 mph - N/A   Overcast
8:33 AM 42.8 °F 38.6 °F 37.4 °F 81% 29.80 in 5.0 mi East 6.9 mph - N/A   Overcast
8:54 AM 42.8 °F 39.3 °F 37.4 °F 81% 29.81 in 5.0 mi ENE 5.8 mph - N/A   Overcast
9:14 AM 42.8 °F 39.3 °F 39.2 °F 87% 29.81 in 4.0 mi East 5.8 mph - N/A   Overcast
9:34 AM 42.8 °F 40.1 °F 39.2 °F 87% 29.82 in 4.0 mi East 4.6 mph - N/A   Overcast
9:54 AM 42.8 °F 41.1 °F 39.2 °F 87% 29.82 in 4.0 mi East 3.5 mph - N/A   Overcast
10:13 AM 42.8 °F 40.1 °F 39.2 °F 87% 29.82 in 4.0 mi ESE 4.6 mph - N/A   Overcast
10:34 AM 42.8 °F 38.6 °F 39.2 °F 87% 29.82 in 4.0 mi ESE 6.9 mph - N/A   Overcast
10:53 AM 42.8 °F 39.3 °F 39.2 °F 87% 29.81 in 4.0 mi East 5.8 mph - N/A   Overcast
11:34 AM 44.6 °F - 39.2 °F 81% 29.82 in 4.0 mi Calm Calm - N/A   Overcast
11:54 AM 44.6 °F - 41.0 °F 87% 29.82 in 5.0 mi Calm Calm - N/A   Overcast
12:14 PM 46.4 °F - 41.0 °F 81% 29.83 in 5.0 mi Calm Calm - N/A   Haze
12:34 PM 46.4 °F - 41.0 °F 81% 29.83 in 7.0 mi Calm Calm - N/A   Overcast
12:54 PM 46.4 °F - 41.0 °F 81% 29.83 in 7.0 mi Calm Calm - N/A   Overcast
1:13 PM 46.4 °F - 42.8 °F 87% 29.83 in 7.0 mi Calm Calm - N/A   Overcast
1:34 PM 48.2 °F - 41.0 °F 76% 29.82 in 7.0 mi Calm Calm - N/A   Overcast
1:53 PM 48.2 °F - 42.8 °F 82% 29.82 in 7.0 mi Calm Calm - N/A   Overcast
2:14 PM 48.2 °F - 42.8 °F 82% 29.83 in 7.0 mi ENE 3.5 mph - N/A   Overcast
2:34 PM 48.2 °F - 42.8 °F 82% 29.83 in 7.0 mi Calm Calm - N/A   Overcast
2:54 PM 50.0 °F - 42.8 °F 76% 29.83 in 10.0 mi Calm Calm - N/A   Overcast
3:14 PM 50.0 °F - 42.8 °F 76% 29.83 in 10.0 mi Calm Calm - N/A   Overcast
3:34 PM 51.8 °F - 42.8 °F 71% 29.83 in 7.0 mi Calm Calm - N/A   Overcast
3:54 PM 51.8 °F - 42.8 °F 71% 29.83 in 10.0 mi Calm Calm - N/A   Overcast
4:14 PM 51.8 °F - 42.8 °F 71% 29.82 in 10.0 mi Calm Calm - N/A   Overcast
4:34 PM 51.8 °F - 42.8 °F 71% 29.82 in 10.0 mi Calm Calm - N/A   Mostly Cloudy
4:54 PM 53.6 °F - 44.6 °F 72% 29.81 in 10.0 mi SE 3.5 mph - N/A   Overcast
5:13 PM 53.6 °F - 42.8 °F 67% 29.81 in 10.0 mi SE 4.6 mph - N/A   Overcast
5:34 PM 51.8 °F - 42.8 °F 71% 29.81 in 10.0 mi East 4.6 mph - N/A   Overcast
5:54 PM 53.6 °F - 42.8 °F 67% 29.80 in 10.0 mi ENE 5.8 mph - N/A   Overcast
6:13 PM 51.8 °F - 44.6 °F 76% 29.80 in 10.0 mi East 6.9 mph - N/A   Overcast
6:34 PM 51.8 °F - 44.6 °F 76% 29.81 in 10.0 mi East 6.9 mph - N/A   Overcast
6:54 PM 51.8 °F - 42.8 °F 71% 29.81 in 10.0 mi East 6.9 mph - N/A   Mostly Cloudy
7:14 PM 50.0 °F - 42.8 °F 76% 29.81 in 10.0 mi East 9.2 mph - N/A   Scattered Clouds
7:34 PM 48.2 °F - 42.8 °F 82% 29.83 in 10.0 mi East 6.9 mph - N/A   Scattered Clouds
7:54 PM 48.2 °F - 42.8 °F 82% 29.87 in 10.0 mi ESE 4.6 mph - N/A   Overcast
8:13 PM 48.2 °F - 42.8 °F 82% 29.87 in 10.0 mi ESE 6.9 mph - N/A   Overcast
8:34 PM 48.2 °F - 42.8 °F 82% 29.88 in 10.0 mi SE 6.9 mph - N/A   Overcast
8:54 PM 48.2 °F - 42.8 °F 82% 29.87 in 10.0 mi East 4.6 mph - N/A   Overcast
9:14 PM 48.2 °F - 42.8 °F 82% 29.86 in 10.0 mi ENE 6.9 mph - N/A   Mostly Cloudy
9:34 PM 46.4 °F 43.5 °F 41.0 °F 81% 29.86 in 10.0 mi East 5.8 mph - N/A   Scattered Clouds
9:54 PM 46.4 °F - 41.0 °F 81% 29.88 in 10.0 mi Calm Calm - N/A   Mostly Cloudy
10:14 PM 46.4 °F 44.3 °F 41.0 °F 81% 29.88 in 10.0 mi East 4.6 mph - N/A   Mostly Cloudy
10:54 PM 44.6 °F 41.4 °F 39.2 °F 81% 29.86 in 7.0 mi ENE 5.8 mph - N/A   Scattered Clouds
11:14 PM 44.6 °F 41.4 °F 39.2 °F 81% 29.85 in 7.0 mi East 5.8 mph - N/A   Clear
11:34 PM 44.6 °F 40.7 °F 39.2 °F 81% 29.85 in 10.0 mi East 6.9 mph - N/A   Clear
11:54 PM 44.6 °F 38.8 °F 39.2 °F 81% 29.86 in 7.0 mi ESE 11.5 mph 16.1 mph N/A   Clear